User: anonymous   Login
Location: Terra Rouge Observatory
(46.0000°N, 62.7500°W)
Time: 06:23:33
(UTC-03:00)
Language:

Landsat 5 - Orbit

View from above orbital plane
View from above orbital plane
View from above satellite
View from above satellite

Ground track
Ground track

The orbit data is extracted from the following two-line orbital elements,

1 14780U 84021A   15088.49248899  .00002415  00000-0  23732-3 0  9992
2 14780 098.0304 175.5358 0092591 317.4826 131.6376 14.90011104655089
Epoch (UTC): 29 March 2015 11:49:11
Eccentricity: 0.0092591
inclination: 98.0304°
perigee height: 533 km
apogee height: 662 km
right ascension of ascending node: 175.5358°
argument of perigee: 317.4826°
revolutions per day: 14.90011104
mean anomaly at epoch: 131.6376°
orbit number at epoch: 65508

The dashed part of the orbit path shows where the satellite is in the earth's shadow,  

DLR